星链-1812 (STARLINK-1812 )

导读

STARLINK-1812是美国太空探索技术公司(SpaceX)星链(Starlink)卫星互联网星座的成员,于北京时间2020年11月25日发射升空。 它运行在近地轨道,作为星链组网卫星,承担全球卫星互联网接入服务的一部分,为偏远地区和网络基础设施薄弱区域提供宽带互联网服务,推进星链星座全球覆盖的建设进程。

基本信息
目录编号:
47126
目录名称:
STARLINK-1812
国际标识:
2020-088E
轨道中心:
EARTH
卫星名称:
星链-1812
卫星全名:
星链-1812 (STARLINK-1812 )
卫星状态:
在轨 (已飞行2031 天)
发射日期:
2020-11-25 UTC
国别 :
美国 (US)
星等 :
--
轨道信息
数据来源 国际轨道数据
星历时间: 2026-06-18T19:49:04+0800
8小时前
查看轨道信息
半长轴: 6880.403km
偏心率: 0.0002611
轨道倾角: 53.079°
近地点辐角 24.161°
升交点赤经 199.049°
平近点角 335.951°
近地点: 500.469km
远地点: 504.063km
周期: 94.663分钟
每日圈数: 15.211847
详细信息
固有亮度:
5
最大亮度:
2.5
卫星平台:
Starlink V1.0
覆盖范围:
全球
运营商:
太空探索技术公司
运营商所在国:
美国
制造商(研发单位):
太空探索技术公司
制造商所在国:
美国
使用方式:
暂无
卫星简介
星链(Starlink)计划是由太空探索技术公司(SpaceX)提出的一个巨型低轨卫星互联网星座项目,计划在2019年至2024年间在太空搭建由约1.2万颗卫星组成的“星链”网络,其中1584颗将部署在地球上空550千米处的近地轨道,并从2020年开始工作。该卫星仍在工作。
2D轨道图
3D轨道图
轨道高度分析图
轨道倾角分析图
轨道综合分析图
查看轨道综合分析图